Location: Austin
(30.3000°N, 97.7500°W)
Time: 05:39:54
(UTC-05:00)

Cosmos 2098 Rocket - Pass Details

Date: 16 June 2025
Orbit: 351 x 915 km, 82.9° (Epoch: 08 July)

Event Time Altitude Azimuth Distance (km) Brightness Sun altitude
Rises 03:51:02 0° 360° (N) 2,493 7.0 -26.8°
Reaches altitude 10° 03:53:16 10° 5° (N) 1,534 5.8 -26.5°
Enters shadow 03:54:54 25° 17° (NNE) 884 4.5 -26.3°
